| time (UTC) | temp F | wind direction | speed knots | gust knots | rain 1hr in | rain 24hr in | rain mn in | humidity % | barometer mb |
| 20260506192847 | 57 | 337 | 1.7 | 7.8 | 0.00 | 0.00 | 0.00 | 26 | 1013.4 |
| 20260506191856 | 57 | 339 | 1.7 | 7.8 | 0.00 | 0.00 | 0.00 | 24 | 1013.6 |
| 20260506190842 | 56 | 338 | 1.7 | 7.8 | 0.00 | 0.00 | 0.00 | 24 | 1013.8 |
| 20260506185857 | 55 | 337 | 1.7 | 7.8 | 0.00 | 0.00 | 0.00 | 25 | 1014.2 |
| 20260506184850 | 55 | 337 | 1.7 | 11.3 | 0.00 | 0.00 | 0.00 | 26 | 1014.5 |
| 20260506181518 | 53 | 336 | 1.7 | 7.8 | 0.00 | 0.00 | 0.00 | 23 | 1014.9 |
| 20260506180456 | 53 | 336 | 1.7 | 7.8 | 0.00 | 0.00 | 0.00 | 23 | 1015.1 |
| 20260506175429 | 52 | 336 | 0.9 | 5.2 | 0.00 | 0.00 | 0.00 | 24 | 1015.2 |
| 20260506174442 | 51 | 336 | 1.7 | 6.1 | 0.00 | 0.00 | 0.00 | 27 | 1015.3 |
| 20260506050857 | 29 | 276 | 0.0 | 0.0 | 0.00 | 0.00 | 0.00 | 67 | 1021.6 |
| 20260506044848 | 30 | 276 | 0.0 | 0.0 | 0.00 | 0.00 | 0.00 | 67 | 1021.5 |
| 20260506043839 | 30 | 276 | 0.0 | 0.0 | 0.00 | 0.00 | 0.00 | 66 | 1021.4 |
| 20260506040536 | 32 | 276 | 0.0 | 0.0 | 0.00 | 0.00 | 0.00 | 60 | 1021.3 |
| 20260506035601 | 33 | 275 | 0.0 | 0.0 | 0.00 | 0.00 | 0.00 | 58 | 1021.2 |
| 20260506034529 | 34 | 269 | 0.0 | 0.0 | 0.00 | 0.00 | 0.00 | 54 | 1021.2 |
| 20260506033515 | 35 | 215 | 0.0 | 0.0 | 0.00 | 0.00 | 0.00 | 53 | 1021.2 |
| 20260506032508 | 36 | 215 | 0.0 | 0.0 | 0.00 | 0.00 | 0.00 | 51 | 1021.0 |
| 20260506030357 | 38 | 97 | 0.0 | 0.0 | 0.00 | 0.00 | 0.00 | 46 | 1020.7 |
| 20260506025354 | 39 | 90 | 0.0 | 0.0 | 0.00 | 0.00 | 0.00 | 45 | 1020.5 |
| 20260506024413 | 40 | 71 | 0.0 | 0.0 | 0.00 | 0.00 | 0.00 | 43 | 1020.4 |
| 20260506023432 | 41 | 65 | 0.0 | 2.6 | 0.00 | 0.00 | 0.00 | 42 | 1020.2 |
| 20260506022422 | 42 | 55 | 0.9 | 5.2 | 0.00 | 0.00 | 0.00 | 42 | 1020.1 |
| 20260506021406 | 42 | 50 | 0.9 | 5.2 | 0.00 | 0.00 | 0.00 | 41 | 1020.0 |
| 20260506015311 | 43 | 5 | 0.9 | 6.1 | 0.00 | 0.00 | 0.00 | 39 | 1019.6 |
| 20260506014256 | 44 | 347 | 1.7 | 7.0 | 0.00 | 0.00 | 0.00 | 38 | 1019.7 |
| 20260506013233 | 44 | 344 | 1.7 | 7.8 | 0.00 | 0.00 | 0.00 | 38 | 1019.6 |
| 20260506012245 | 44 | 347 | 0.9 | 7.8 | 0.00 | 0.00 | 0.00 | 38 | 1019.6 |
| 20260506011250 | 44 | 345 | 1.7 | 7.0 | 0.00 | 0.00 | 0.00 | 37 | 1019.6 |
| 20260506010218 | 45 | 351 | 1.7 | 9.6 | 0.00 | 0.00 | 0.00 | 38 | 1019.5 |
| 20260506005209 | 45 | 346 | 2.6 | 9.6 | 0.00 | 0.00 | 0.00 | 36 | 1019.5 |
| 20260506004234 | 45 | 351 | 1.7 | 8.7 | 0.00 | 0.00 | 0.00 | 39 | 1019.4 |
| 20260506003237 | 44 | 10 | 1.7 | 8.7 | 0.00 | 0.00 | 0.00 | 38 | 1019.4 |
| 20260506002243 | 45 | 347 | 2.6 | 8.7 | 0.00 | 0.00 | 0.00 | 37 | 1019.4 |
| 20260506001233 | 46 | 341 | 1.7 | 10.4 | 0.00 | 0.00 | 0.00 | 37 | 1019.4 |
| 20260505235107 | 45 | 353 | 2.6 | 10.4 | 0.00 | 0.00 | 0.00 | 40 | 1019.2 |
| 20260505234121 | 45 | 346 | 2.6 | 8.7 | 0.00 | 0.00 | 0.00 | 41 | 1019.2 |
| 20260505233131 | 45 | 332 | 2.6 | 8.7 | 0.00 | 0.00 | 0.00 | 38 | 1019.1 |
| 20260505232151 | 45 | 345 | 1.7 | 8.7 | 0.00 | 0.00 | 0.00 | 39 | 1019.0 |
| 20260505231155 | 45 | 351 | 2.6 | 8.7 | 0.00 | 0.00 | 0.00 | 39 | 1019.1 |
| 20260505230152 | 46 | 339 | 1.7 | 6.1 | 0.00 | 0.00 | 0.00 | 40 | 1019.0 |
| 20260505225133 | 45 | 346 | 2.6 | 7.8 | 0.00 | 0.00 | 0.00 | 40 | 1019.1 |
| 20260505224142 | 47 | 340 | 2.6 | 9.6 | 0.00 | 0.00 | 0.00 | 38 | 1019.0 |
| 20260505222000 | 45 | 323 | 2.6 | 10.4 | 0.00 | 0.00 | 0.00 | 41 | 1019.1 |
| 20260505220928 | 46 | 345 | 2.6 | 11.3 | 0.00 | 0.00 | 0.00 | 40 | 1019.1 |
| 20260505215946 | 46 | 341 | 2.6 | 11.3 | 0.00 | 0.00 | 0.00 | 42 | 1019.0 |
| 20260505215010 | 44 | 353 | 3.5 | 9.6 | 0.00 | 0.00 | 0.00 | 42 | 1019.1 |
| 20260505213944 | 46 | 344 | 2.6 | 7.8 | 0.00 | 0.00 | 0.00 | 41 | 1019.2 |
| 20260505212931 | 46 | 344 | 2.6 | 8.7 | 0.00 | 0.00 | 0.00 | 41 | 1019.1 |
| 20260505211903 | 45 | 348 | 2.6 | 8.7 | 0.00 | 0.00 | 0.00 | 42 | 1019.2 |
| 20260505210926 | 46 | 347 | 2.6 | 8.7 | 0.00 | 0.00 | 0.00 | 42 | 1019.2 |
| 20260505205853 | 45 | 345 | 3.5 | 9.6 | 0.00 | 0.00 | 0.00 | 42 | 1019.1 |
| 20260505202558 | 45 | 332 | 3.5 | 9.6 | 0.00 | 0.00 | 0.00 | 40 | 1019.4 |
| 20260505201623 | 45 | 351 | 2.6 | 11.3 | 0.00 | 0.00 | 0.00 | 45 | 1019.4 |
| 20260505200609 | 45 | 332 | 3.5 | 11.3 | 0.00 | 0.00 | 0.00 | 45 | 1019.5 |
| 20260505195600 | 44 | 351 | 2.6 | 7.8 | 0.00 | 0.00 | 0.00 | 44 | 1019.4 |
| 20260505194545 | 44 | 352 | 2.6 | 9.6 | 0.00 | 0.00 | 0.00 | 44 | 1019.4 |